Weather History for Hayward, WI

Change the Weather History Date:

Saturday, August 4, 2012

  Actual Average Record
Temperature  
Mean Temperature 70 °F -  
Max Temperature 75 °F 81 °F 90 °F (2006)
Min Temperature 63 °F 52 °F 39 °F (2013)
Cooling Degree Days 4    
Growing Degree Days 20 (Base 50)    
Moisture  
Dew Point 62 °F    
Average Humidity 79    
Maximum Humidity 100    
Minimum Humidity 52    
Precipitation  
Precipitation 0.38 in - - ()
Sea Level Pressure  
Sea Level Pressure 29.83 in    
Wind  
Wind Speed 7 mph (SSW)    
Max Wind Speed 16 mph    
Max Gust Speed 30 mph    
Visibility 9 miles    
Events Rain , Thunderstorm    
Averages and records for this station are not official NWS values.
T = Trace of Precipitation, MM = Missing Value Source: NWS Daily Summary

Daily Weather History Graph

Daily Weather History Graph

Search for Another Location

Airport:

Trip Planner

Search our weather history database for the weather conditions in past years. The results will help you decide how hot, cold, wet, or windy it might be!

Date:

Astronomy

Aug. 04, 2012 Rise Set
Actual Time 5:52 AM CDT 8:30 PM CDT
Civil Twilight 5:18 AM CDT 9:04 PM CDT
Nautical Twilight 4:35 AM CDT 9:47 PM CDT
Astronomical Twilight 3:45 AM CDT 10:36 PM CDT
Moon 9:24 PM CDT (8/4) 8:53 AM CDT (8/4)
Length of Visible Light 15h 46m
Length of Day
14h 38m
Waning Gibbous, 92% of the Moon is Illuminated
Aug 4
Waning Gibbous
Aug 9
Last Quarter
Aug 17
New
Aug 24
First Quarter
Aug 31
Full

Hourly Weather History & Observations

Time (CDT) Temp. Dew Point Humidity Pressure Visibility Wind Dir Wind Speed Gust Speed Precip Events Conditions
12:53 AM 75.0 °F 66.0 °F 73% 29.80 in 10.0 mi SSE 11.5 mph 23.0 mph N/A Thunderstorm Mostly Cloudy
1:07 AM 75.2 °F 66.2 °F 73% 29.82 in 10.0 mi SSE 16.1 mph 23.0 mph 0.00 in Rain Light Rain
1:25 AM 71.6 °F 66.2 °F 83% 29.84 in 5.0 mi SW 12.7 mph 29.9 mph 0.08 in Rain , Thunderstorm Rain
1:36 AM 69.8 °F 66.2 °F 88% 29.86 in 2.0 mi WSW 11.5 mph 25.3 mph 0.21 in Rain , Thunderstorm Heavy Thunderstorms and Rain
1:53 AM 68.0 °F 66.0 °F 93% 29.86 in 4.0 mi Variable 3.5 mph - 0.24 in Rain , Thunderstorm Thunderstorms and Rain
2:02 AM 68.0 °F 66.2 °F 94% 29.87 in 4.0 mi Calm Calm - 0.02 in Rain , Thunderstorm Thunderstorms and Rain
2:13 AM 68.0 °F 66.2 °F 94% 29.85 in 2.5 mi Calm Calm - 0.07 in Rain , Thunderstorm Heavy Thunderstorms and Rain
2:53 AM 66.0 °F 64.0 °F 93% 29.82 in 10.0 mi Calm Calm - 0.13 in   Overcast
3:53 AM 66.0 °F 64.0 °F 93% 29.80 in 10.0 mi East 3.5 mph - N/A   Overcast
4:22 AM 64.4 °F 64.4 °F 100% 29.81 in 10.0 mi SSE 4.6 mph - N/A   Overcast
4:50 AM 64.4 °F 62.6 °F 94% 29.80 in 10.0 mi Calm Calm - N/A   Scattered Clouds
4:53 AM 64.0 °F 63.0 °F 96% 29.78 in 10.0 mi Calm Calm - N/A   Partly Cloudy
5:53 AM 66.0 °F 64.0 °F 93% 29.79 in 10.0 mi South 5.8 mph - N/A   Overcast
6:53 AM 66.0 °F 63.0 °F 90% 29.81 in 10.0 mi South 5.8 mph - N/A   Mostly Cloudy
7:53 AM 66.9 °F 63.0 °F 87% 29.80 in 10.0 mi South 5.8 mph - N/A   Clear
8:53 AM 66.9 °F 63.0 °F 87% 29.81 in 10.0 mi SSW 8.1 mph - N/A   Clear
9:06 AM 66.2 °F 62.6 °F 88% 29.82 in 10.0 mi Variable 4.6 mph - N/A   Mostly Cloudy
9:53 AM 66.9 °F 63.0 °F 87% 29.79 in 10.0 mi Variable 6.9 mph - N/A   Overcast
10:53 AM 66.9 °F 63.0 °F 87% 29.83 in 10.0 mi SW 8.1 mph - 0.00 in Rain Light Rain
11:53 AM 68.0 °F 64.0 °F 87% 29.82 in 10.0 mi Variable 5.8 mph - 0.01 in   Overcast
12:42 PM 69.8 °F 64.4 °F 83% 29.81 in 10.0 mi WSW 9.2 mph - N/A   Mostly Cloudy
12:53 PM 70.0 °F 64.0 °F 81% 29.80 in 10.0 mi WSW 8.1 mph - N/A   Mostly Cloudy
1:16 PM 71.6 °F 62.6 °F 73% 29.82 in 10.0 mi WSW 10.4 mph 18.4 mph N/A   Mostly Cloudy
1:45 PM 71.6 °F 62.6 °F 73% 29.83 in 10.0 mi Variable 6.9 mph - N/A   Mostly Cloudy
1:53 PM 72.0 °F 62.1 °F 71% 29.82 in 10.0 mi WSW 8.1 mph - N/A   Mostly Cloudy
2:53 PM 73.9 °F 57.9 °F 57% 29.82 in 10.0 mi Variable 6.9 mph - N/A   Partly Cloudy
3:53 PM 75.9 °F 57.0 °F 52% 29.82 in 10.0 mi Variable 6.9 mph - N/A   Scattered Clouds
4:53 PM 73.9 °F 55.0 °F 52% 29.84 in 10.0 mi Variable 6.9 mph - N/A   Partly Cloudy
5:53 PM 73.9 °F 55.0 °F 52% 29.83 in 10.0 mi West 8.1 mph 16.1 mph N/A   Scattered Clouds
6:53 PM 73.0 °F 55.0 °F 53% 29.83 in 10.0 mi Variable 6.9 mph - N/A   Partly Cloudy
7:53 PM 71.1 °F 55.9 °F 59% 29.83 in 10.0 mi Variable 3.5 mph - N/A   Clear
8:53 PM 68.0 °F 55.0 °F 63% 29.85 in 10.0 mi Calm Calm - N/A   Clear
9:53 PM 64.9 °F 55.9 °F 73% 29.86 in 10.0 mi Variable 3.5 mph - N/A   Clear
10:53 PM 64.9 °F 55.9 °F 73% 29.86 in 10.0 mi Variable 6.9 mph - N/A   Clear
11:53 PM 63.0 °F 55.0 °F 75% 29.88 in 10.0 mi Calm Calm - N/A   Clear